User: anonymous   Login
Location: Unspecified
(0.0000°N, 0.0000°E)
Time: 03:40:47
(UTC+00:00)
Language:

deb r/b Ablestar - Orbit

View from above orbital plane
View from above orbital plane
View from above satellite
View from above satellite

Ground track
Ground track

The orbit data is extracted from the following two-line orbital elements,

1   335U 61015DM  18050.20783287 -.00000050 +00000-0 +15927-4 0  9999
2   335 066.8446 330.6448 0046608 262.3072 097.2726 14.16916243896071
Epoch (UTC): 19 February 2018 04:59:16
Eccentricity: 0.0046608
inclination: 66.8446°
perigee height: 802 km
apogee height: 869 km
right ascension of ascending node: 330.6448°
argument of perigee: 262.3072°
revolutions per day: 14.16916243
mean anomaly at epoch: 97.2726°
orbit number at epoch: 89607

The dashed part of the orbit path shows where the satellite is in the earth's shadow,  

DLR